Location: Rumah Long Bangan
(2.8362°N, 113.7519°E)
Time: 18:24:42
(UTC+00:00)

Cosmos 332 Rocket - Pass Details

Date: 24 October 2021
Orbit: 682 x 703 km, 74.0° (Epoch: 07 December)

Event Time Altitude Azimuth Distance (km) Brightness Sun altitude
Rises 21:31:52 0° 351° (N) 3,028 6.9 -9.7°
Reaches altitude 10° 21:34:10 10° 353° (N) 2,115 6.1 -9.1°
Maximum altitude 21:38:55 73° 78° (ENE) 712 4.1 -8.0°
Drops below altitude 10° 21:43:41 10° 162° (SSE) 2,124 6.7 -6.8°
Sets 21:46:00 0° 164° (SSE) 3,043 7.5 -6.2°
